Погода в Керше

Россия / Тамбовская область     52°47′42″N   42°03′08″E
темп.,
°C
ветер,
м/с
пор.,
м/с
влажн.,
%
обл.,
%
осадки,
мм/ч
давл.,
гПа
погр.,
м
16 мая, вс
вс1600:00+16з22845 0.6 101412
03:00+15ссз228799 0.6 101412
06:00+17св22855 0.0 101454
09:00+22всв216788 0.0 1014418
12:00+25юв125696 0.0 10141358
15:00+25юв336060 1.6 10141343
18:00+23ю246928 0.8 1013221
21:00+19вюв227447 0.8 101411
17 мая, пн
пн1700:00+17вюв337240 0.0 101422
03:00+16в357922 0.0 101468
06:00+17юв3676100 0.0 1014115
09:00+22юв51259100 0.0 1014453
12:00+25юв61047100 0.0 1014930
15:00+26юв6105181 0.0 10131187
18:00+24юв510635 0.0 1013313
21:00+19вюв51564100 0.0 1013260
18 мая, вт
вт1800:00+18юв5165699 0.0 1013271
03:00+16вюв5155139 0.0 1012231
06:00+15вюв5126875 0.0 1012199
09:00+22юв611545 0.0 1012414
12:00+26вюв69428 0.0 1011818
15:00+27вюв712515 0.0 10101368
18:00+24вюв6155739 0.0 1010509
21:00+21вюв819505 0.0 1010443
19 мая, ср
ср1900:00+18юв616520 0.0 1010322
03:00+16вюв5126059 0.0 1009185
06:00+16юв51368100 0.0 1009371
09:00+21ююв61158100 0.0 1009663
12:00+23ююв5752100 0.0 1010935
15:00+24ю5953100 0.0 1010937
18:00+19ю5879100 1.4 1006333
21:00+16юв229358 6.6 100836
20 мая, чт
чт2000:00+14ю489572 0.1 1009207
03:00+13ююв4996100 0.1 1010275
06:00+13ю499237 0.0 1010495
09:00+15ю5782100 0.1 1011765
12:00+16ююз6773100 0.6 10131084
15:00+15ююз468180 0.8 1014691
18:00+17ююз46755 0.1 1014806
21:00+13юз33891 0.4 101638